YAOGAN-31 K (47854 NORAD) Tracking and Keplerian Element Data

This shows tracking and keplerian element data for the satellite.

Feedback or suggestion? Click here.




ElementValue
Catalog47854
NameYAOGAN-31 K
Epoch Orbit1354
Epoch Day172.79736704
Epoch Year2021
RAAN255.0778
Inclination63.4098
Eccentricity0.0013722
Argument of Perigee324.8221
Mean Anonmoly35.1898
Mean Motion13.45209601
Decay Rate-6.6E-07
L11 47854U 21020A 21172.79736704 -.00000066 00000-0 39974-4 0 9998
L22 47854 63.4098 255.0778 0013722 324.8221 35.1898 13.45209601 13549

Live tracking and technical data element details for YAOGAN-31 K (NORAD 47854). YAOGAN-31 K can be tracked NOW for your location showing map with azimuth and elevation plus other details from your city location.

Track the satellite on the map from your city or location and see movement details for azimuth, elevation, latitude, longitude, range, height, and movement on the map or in text.







IsCatalogInMostPopularTable: catalog: 47854, numindb: 41
Update: records affected: 1



GetName: 47854 YAOGAN-31 K

Hit Count: updated at: Thu, 24 Jun 2021 03:27:08 GMT